Location: Espaubourg
(49.4218°N, 1.8662°E)
Time: 00:53:34
(UTC+00:00)

Daily predictions for brighter satellites

Satellite Brightness Start Highest point End
(mag) Time Altitude Azimuth Time Altitude Azimuth Time Altitude Azimuth
ACS3 Solar Sail 4.1 02:01:15 10° NE 02:03:45 18° ENE 02:03:45 18° ENE
ADEOS Rocket 4.3 02:33:40 10° NNE 02:38:45 40° ENE 02:38:45 40° ENE
Cosmos 2219 Rocket 3.9 02:55:06 29° ENE 02:55:06 29° ENE 02:58:35 10° NE
USA 267 3.5 03:14:16 10° ENE 03:20:18 64° ESE 03:20:18 64° ESE
Cosmos 1980 Rocket 4.5 03:27:56 13° N 03:27:56 13° N 03:28:59 10° N
USA 238 DEB 4.2 03:33:04 45° N 03:33:04 45° N 03:38:28 10° NE
H-2A R/B 4.1 03:26:43 10° NNE 03:28:05 19° NNE 03:28:05 19° NNE
USA 238 4.2 03:33:10 45° N 03:33:10 45° N 03:38:35 10° NE
Cosmos 2278 Rocket 3.9 03:29:48 22° N 03:32:17 30° NE 03:37:12 10° ESE
Cosmos 2333 Rocket 3.3 03:39:30 34° N 03:39:30 34° N 03:42:52 10° NNE
COSMOS 2455 3.3 03:45:06 52° N 03:45:06 52° N 03:49:48 10° NNE
ADEOS II 4.3 03:38:58 10° N 03:39:55 15° N 03:39:55 15° N
Lacrosse 5 rocket 4.0 03:46:58 12° NE 03:46:58 12° NE 03:47:19 10° NE
Cosmos 2298 Rocket 4.5 03:46:57 57° NE 03:46:57 57° NE 03:51:15 10° NNE
ACS3 Solar Sail 2.1 03:43:15 10° N 03:47:53 55° N 03:47:53 55° N
BlueWalker 3 4.3 03:53:51 19° ESE 03:53:51 19° ESE 03:54:59 10° ESE
Resurs 1-4 Rocket 4.5 03:47:55 10° N 03:48:14 11° N 03:48:14 11° N
CENTAUR R/B 4.2 03:52:18 23° NNW 03:55:26 30° NNE 04:02:52 10° ENE
Cosmos 2360 Rocket 2.9 03:59:09 43° N 03:59:09 43° N 04:03:13 10° NNE
Cosmos 2322 Rocket 3.0 03:59:31 38° N 03:59:31 38° N 04:03:24 10° NNE
USA 234 3.1 03:51:58 10° SE 03:58:31 70° SW 03:58:53 68° WSW
Gbstr 26 Del rocket 4.3 03:59:16 38° SSE 03:59:45 39° SE 04:04:58 10° ENE
SL-16 R/B 3.6 04:06:02 25° NNW 04:06:02 25° NNW 04:09:09 10° NNE
Cosmos 44 Rocket 3.5 04:05:02 71° NNE 04:05:15 72° NE 04:10:23 10° SE
Cosmos 1943 Rocket 2.9 04:06:17 23° N 04:09:33 49° NE 04:14:53 10° SE
Okean 1-7 3.8 04:13:10 43° NNE 04:13:10 43° NNE 04:16:08 10° NNE
H-2A R/B 4.5 04:08:42 10° NNE 04:11:15 38° NE 04:11:15 38° NE
ARGOS 3.0 04:09:38 10° NNE 04:15:05 83° WNW 04:16:17 56° SSW
PAYLOAD A 4.2 04:10:28 10° NNE 04:15:55 77° ESE 04:20:30 14° S
Cosmos 1140 Rocket 3.5 04:15:55 39° NNW 04:17:49 75° ENE 04:22:54 10° SSE
NOSS 2-1 (D) 4.4 04:19:05 34° E 04:19:05 34° E 04:21:13 10° NE
Timation 2 Rocket 4.2 04:14:48 21° NNW 04:19:33 76° ENE 04:25:59 10° SE
CZ-2C R/B 2.3 04:15:25 10° NNE 04:20:26 84° WNW 04:21:33 56° SSW
Cosmos 1809 Rocket 4.3 04:17:41 10° S 04:23:48 86° W 04:29:57 10° N
ADEOS Rocket 3.5 04:19:18 10° N 04:25:22 45° WNW 04:25:40 45° WNW
NOSS 3-1 (C) 3.1 04:27:25 40° SSW 04:29:08 70° SE 04:34:49 10° NE
Iridium 4 Rocket 4.2 04:27:13 10° N 04:31:24 43° E 04:35:23 10° SSE
SJ 16-02 3.9 04:28:40 10° N 04:31:34 17° NE 04:34:29 10° E
Cosmos 2100 Rocket 3.8 04:25:40 10° N 04:31:50 82° W 04:37:59 10° S
Cosmos 2219 Rocket 2.4 04:36:49 46° WNW 04:37:19 48° NW 04:42:50 10° NNE
SL-24 R/B - RUBIN 2 4.0 04:39:22 51° W 04:40:14 58° NW 04:45:04 10° NE
IRS-1D 4.2 04:35:34 10° NNE 04:40:27 52° E 04:45:15 10° S
TIMED 4.4 04:40:17 39° NNW 04:41:50 87° ENE 04:46:05 10° SSE
COSMOS 2428 2.7 04:41:31 10° SSW 04:47:07 86° ESE 04:52:51 10° NNE
USA 59 Rocket -0.8 04:50:48 73° NNE 04:50:48 73° NNE 04:53:32 10° NE
SL-08 RB Rocket 3.8 04:47:34 10° N 04:52:01 52° WNW 04:53:29 36° WSW
Cosmos 1459 Rocket 4.0 04:46:43 10° NNW 04:53:02 65° W 04:59:17 10° S
Cosmos 1864 Rocket 4.4 04:47:39 10° N 04:53:57 82° W 05:00:16 10° S
Cosmos 2322 3.6 04:50:01 16° SW 04:54:35 75° WNW 05:00:18 10° NNE
FengYun 1-2 T 4.2 04:51:27 10° NNE 04:57:02 89° WNW 05:02:38 10° SSW
COSMO-SKYMED 1 2.9 04:54:57 10° SSE 04:59:00 63° ENE 05:03:06 10° N
Meteor 2-21 4.3 04:53:27 10° SSW 04:59:30 65° WNW 05:05:33 10° N
Cosmos 407 Rocket 3.4 04:54:47 11° NNW 04:59:46 88° ENE 05:04:52 10° SSE
SKYMED 2 3.5 04:55:57 10° SSE 05:00:18 89° E 05:04:41 10° NNW
Cosmos 1727 Rocket 4.2 04:56:12 10° SSW 05:02:07 47° WNW 05:08:08 10° N
Cosmos 2228 Rocket 3.6 05:03:28 35° WNW 05:03:28 35° WNW 05:07:21 10° N
Cosmos 1725 Rocket 3.9 04:57:09 10° NNW 05:03:30 78° W 05:09:47 10° S
USA 267 3.4 04:57:23 10° ENE 05:03:48 60° NNW 05:07:39 25° W
Cosmos 1980 4.3 05:01:23 10° S 05:06:55 60° ESE 05:12:31 10° NE
H-2A R/B 3.9 05:07:28 10° NNW 05:08:34 13° NNW 05:08:34 13° NNW
Cosmos 1802 Rocket 4.0 05:05:04 10° NNW 05:11:22 63° W 05:17:32 10° S
NOSS 3-1 (A) 3.4 05:08:39 10° SSW 05:13:18 64° SE 05:18:57 10° NE
Cosmos 2233 Rocket 4.0 05:08:21 10° N 05:14:44 90° SW 05:21:01 10° S
Cosmos 1328 3.8 05:12:48 10° SSW 05:16:19 46° WNW 05:19:51 10° N
Cosmos 2278 Rocket 2.2 05:11:40 13° NW 05:16:45 61° WSW 05:22:18 10° SSE
Cosmos 1703 Rocket 3.5 05:13:24 10° SSW 05:17:42 59° WNW 05:22:04 10° N
Cosmos 2251 Rocket 3.7 05:13:13 10° NNW 05:18:37 74° ENE 05:23:58 10° SSE
CZ-3 R/B 4.3 05:16:14 10° SSW 05:20:22 13° S 05:23:21 10° SSE
NOSS 2-1 (E) 2.8 05:18:52 29° WSW 05:20:22 57° NW 05:23:24 10° NE
Cosmos 1939 Rocket 3.4 05:17:47 10° N 05:21:17 34° WNW 05:23:42 17° SW
Lacrosse 5 rocket 2.4 05:20:39 20° NNW 05:21:36 23° N 05:24:22 10° NE
Meteor 2-16 Rocket 4.4 05:16:00 10° SSW 05:22:05 71° WNW 05:28:14 10° N
Cosmos 2173 Rocket 4.4 05:16:41 10° NNW 05:22:12 37° W 05:27:42 10° SSW
Cosmos 2333 Rocket 3.8 05:21:33 16° NW 05:22:44 17° NNW 05:26:24 10° N
Cosmos 2237 Rocket 2.5 05:17:32 10° SSW 05:23:11 73° ESE 05:28:50 10° NNE
USA-17 4.1 05:22:08 27° NW 05:23:43 87° SW 05:27:03 10° SE
SL-08 R/B 4.4 05:19:32 10° NNW 05:25:35 66° W 05:31:40 10° S
Cosmos 2292 Rocket 3.7 05:23:55 10° SSW 05:28:08 70° WNW 05:33:41 10° N
BlueWalker 3 3.2 05:27:40 21° WSW 05:28:37 23° SW 05:31:32 10° SSE
USA 276 3.9 05:29:39 14° SW 05:29:45 14° SSW 05:31:14 10° S
COSMOS 2455 4.2 05:28:15 17° WNW 05:30:48 23° NNW 05:35:29 10° NNE
ACS3 Solar Sail 3.1 05:27:43 10° NNW 05:31:19 17° NW 05:32:02 16° WNW
Meteor 1-24 Rocket 3.9 05:27:17 10° SSW 05:32:53 51° WNW 05:38:19 10° N
Helios 1A Rocket 3.0 05:30:20 10° SSW 05:33:29 36° W 05:36:22 12° NNW
Cosmos 2369 Rocket 3.6 05:29:11 10° NNW 05:34:24 35° NE 05:39:36 10° ESE
CZ-4 R/B 3.9 05:31:00 10° N 05:35:50 58° WNW 05:40:34 10° SSW
Cosmos 1782 Rocket 3.7 05:33:36 10° NNW 05:37:53 51° W 05:42:07 10° S
USA 234 4.5 05:37:23 10° S 05:42:19 22° SW 05:46:14 13° W
Cosmos 2360 Rocket 3.8 05:40:55 14° NW 05:42:55 16° NNW 05:46:18 10° N
Cosmos 2322 Rocket 3.9 05:41:20 13° NW 05:43:19 15° NNW 05:46:28 10° N
Cosmos 2123 Rocket 4.3 05:37:46 10° SW 05:43:38 43° WNW 05:49:31 10° N
Meteor 2-5 Rocket 4.0 05:38:24 10° SW 05:44:05 47° WNW 05:49:44 10° N
NOAA 12 4.2 05:39:53 10° N 05:45:07 58° WNW 05:50:19 10° SSW
Cosmos 1420 Rocket 4.1 05:40:04 10° SSW 05:45:20 82° ESE 05:50:40 10° NNE
Gbstr 26 Del rocket 3.6 05:41:19 13° WSW 05:45:56 84° NNW 05:52:18 10° ENE
CENTAUR R/B 3.8 05:40:05 10° NW 05:47:50 55° NE 05:56:52 10° ESE
SL-16 R/B 4.2 05:48:54 10° NW 05:50:11 11° NNW 05:51:30 10° N
Cosmos 1943 Rocket 2.9 05:48:14 10° NW 05:53:03 31° WSW 05:57:50 10° SSW
Cosmos 1812 2.2 05:53:59 10° N 05:56:55 72° E 05:59:49 10° SSE
CZ-2C R/B 4.0 05:54:57 10° NNW 05:57:46 15° NW 06:00:36 10° W
Cosmos 1300 Rocket 4.3 05:54:29 10° NNW 05:58:15 29° W 06:01:58 10° SSW
SMAP 4.3 05:54:56 10° NNE 05:59:27 48° E 06:03:57 10° S
Cosmos 2346 Rocket 4.4 05:56:06 10° SSW 06:02:15 71° W 06:08:22 10° N
NOSS 2-1 (C) 4.1 06:00:51 12° W 06:03:11 22° NW 06:05:37 10° NNE
NOSS 2-1 (D) 4.2 06:04:54 11° W 06:07:13 20° NW 06:09:30 10° NNE
SJ 16-02 1.3 06:05:54 10° NNW 06:10:11 68° WSW 06:14:26 10° S
Iridium 4 Rocket 4.3 06:07:41 10° NNW 06:10:49 20° WNW 06:13:52 10° SW
Aureole 3 Rocket 3.4 06:07:04 10° NNW 06:11:14 63° W 06:16:57 10° S
Okean 1 Rocket 4.2 06:07:19 10° N 06:11:32 46° ENE 06:15:41 10° SSE
Cosmos 2061 Rocket 4.4 06:08:14 10° NNW 06:13:54 39° W 06:19:32 10° SSW
CBERS-1 4.0 06:10:08 10° NNE 06:15:17 77° WNW 06:20:22 10° SSW
SWARM A 4.2 06:13:58 10° SSW 06:17:14 63° W 06:20:34 10° N
IRS-1D 4.4 06:15:15 10° N 06:19:17 25° WNW 06:23:17 10° WSW
Cosmos 1190 Rocket 4.4 06:14:37 10° NW 06:19:36 44° WSW 06:24:33 10° S
Cosmos 1378 Rocket 3.5 06:15:35 10° S 06:19:52 89° W 06:24:10 10° N
NOSS 3-1 (C) 4.0 06:15:47 10° W 06:20:23 33° NNW 06:25:59 10° NE
Cosmos 676 Rocket 4.0 06:15:29 10° NNW 06:20:43 67° WSW 06:25:52 10° S
SL-16 R/B 2.9 06:15:50 10° SSW 06:21:26 63° ESE 06:27:04 10° NE
In-Cosmos 22 Rocket 4.3 06:16:31 10° SSW 06:22:20 74° WNW 06:28:11 10° N
